Radiation Dose at Monitoring Post of Fukushima Daini Nuclear Power Station
Date,Time,MP-1(microSv/h),MP-2(microSv/h),MP-3(microSv/h),MP-4(microSv/h),MP-5(microSv/h),MP-6(microSv/h),MP-7(microSv/h),Wind Direction,Wind Velocity(m/s),Rain
2015/08/12,00:00,0.521,0.299,0.555,0.498,0.471,0.243,0.214,north,4.3,No
2015/08/12,00:10,0.520,0.297,0.555,0.496,0.468,0.243,0.215,north,3.7,No
2015/08/12,00:20,0.518,0.300,0.549,0.503,0.464,0.244,0.215,north,4.0,No
2015/08/12,00:30,0.526,0.302,0.545,0.505,0.472,0.243,0.212,north,3.4,No
2015/08/12,00:40,0.523,0.299,0.554,0.500,0.472,0.242,0.214,north,2.2,No
2015/08/12,00:50,0.521,0.297,0.554,0.496,0.467,0.242,0.215,north-northeast,2.8,No
2015/08/12,01:00,0.517,0.301,0.550,0.500,0.464,0.243,0.214,north,2.9,No
2015/08/12,01:10,0.525,0.301,0.547,0.504,0.469,0.243,0.213,north,3.1,No
2015/08/12,01:20,0.523,0.298,0.555,0.501,0.472,0.242,0.213,north,3.0,No
2015/08/12,01:30,0.520,0.299,0.552,0.497,0.466,0.243,0.214,north,2.4,No
2015/08/12,01:40,0.517,0.302,0.550,0.500,0.464,0.244,0.214,north,3.3,No
2015/08/12,01:50,0.526,0.302,0.546,0.505,0.471,0.243,0.213,north,3.7,No
2015/08/12,02:00,0.525,0.298,0.553,0.500,0.471,0.242,0.215,north,3.2,No
2015/08/12,02:10,0.520,0.299,0.554,0.499,0.466,0.243,0.214,north,3.1,No
2015/08/12,02:20,0.517,0.301,0.549,0.501,0.466,0.243,0.214,north,3.3,No
2015/08/12,02:30,0.524,0.300,0.547,0.504,0.472,0.243,0.213,north,3.9,No
2015/08/12,02:40,0.525,0.299,0.553,0.500,0.470,0.242,0.217,north,3.9,No
2015/08/12,02:50,0.522,0.300,0.552,0.496,0.467,0.243,0.215,north,4.0,No
2015/08/12,03:00,0.519,0.303,0.549,0.504,0.467,0.245,0.213,north,3.1,No
2015/08/12,03:10,0.526,0.301,0.550,0.505,0.473,0.243,0.216,north,2.7,Yes
2015/08/12,03:20,0.526,0.299,0.555,0.502,0.469,0.243,0.216,north,2.8,Yes
2015/08/12,03:30,0.521,0.302,0.551,0.499,0.464,0.245,0.214,north-northwest,3.0,No
2015/08/12,03:40,0.520,0.303,0.548,0.507,0.471,0.245,0.214,north,2.0,No
2015/08/12,03:50,0.526,0.299,0.551,0.506,0.471,0.243,0.217,north,2.2,No
2015/08/12,04:00,0.528,0.301,0.558,0.500,0.471,0.245,0.215,north,3.1,No
2015/08/12,04:10,0.525,0.304,0.553,0.499,0.466,0.244,0.214,north,3.1,No
2015/08/12,04:20,0.520,0.302,0.549,0.508,0.473,0.243,0.217,north,2.1,No
2015/08/12,04:30,0.529,0.300,0.553,0.504,0.471,0.245,0.217,north-northwest,2.9,No
2015/08/12,04:40,0.529,0.304,0.556,0.501,0.469,0.245,0.214,north,3.6,No
2015/08/12,04:50,0.523,0.304,0.553,0.500,0.469,0.244,0.215,north,3.7,Yes
2015/08/12,05:00,0.518,0.301,0.548,0.507,0.473,0.244,0.217,north,3.1,No
2015/08/12,05:10,0.528,0.299,0.554,0.504,0.471,0.245,0.217,north,3.3,Yes
2015/08/12,05:20,0.527,0.302,0.558,0.500,0.467,0.246,0.215,north,3.4,Yes
2015/08/12,05:30,0.523,0.303,0.551,0.501,0.467,0.244,0.215,north,3.2,Yes
2015/08/12,05:40,0.520,0.301,0.548,0.508,0.474,0.246,0.218,north,3.4,Yes
2015/08/12,05:50,0.525,0.301,0.557,0.505,0.472,0.246,0.216,north,4.0,Yes
2015/08/12,06:00,0.526,0.303,0.555,0.500,0.467,0.246,0.215,north-northwest,2.9,Yes
2015/08/12,06:10,0.525,0.302,0.551,0.500,0.470,0.245,0.217,north,3.1,Yes
2015/08/12,06:20,0.520,0.299,0.550,0.507,0.475,0.246,0.217,north,3.0,Yes
2015/08/12,06:30,0.530,0.304,0.558,0.503,0.471,0.245,0.215,north,2.5,Yes
2015/08/12,06:40,0.528,0.304,0.556,0.498,0.466,0.245,0.215,north,2.6,Yes
2015/08/12,06:50,0.524,0.301,0.548,0.502,0.467,0.245,0.217,north,2.9,Yes
2015/08/12,07:00,0.521,0.300,0.552,0.508,0.473,0.245,0.217,north,4.0,Yes
2015/08/12,07:10,0.530,0.304,0.558,0.503,0.469,0.247,0.215,north-northwest,3.9,Yes
2015/08/12,07:20,0.526,0.304,0.552,0.498,0.467,0.244,0.214,north-northwest,2.2,No
2015/08/12,07:30,0.522,0.301,0.548,0.502,0.467,0.246,0.217,north,2.2,No
2015/08/12,07:40,0.519,0.300,0.548,0.507,0.472,0.246,0.216,north,1.4,No
2015/08/12,07:50,0.526,0.298,0.556,0.501,0.472,0.245,0.216,north,1.7,No
2015/08/12,08:00,0.527,0.298,0.555,0.498,0.469,0.245,0.215,north-northwest,2.5,No
2015/08/12,08:10,0.524,0.298,0.549,0.497,0.465,0.244,0.214,northwest,1.5,No
2015/08/12,08:20,0.522,0.299,0.548,0.495,0.465,0.243,0.215,north,1.9,No
2015/08/12,08:30,0.520,0.298,0.548,0.495,0.465,0.243,0.214,north-northwest,2.4,No
2015/08/12,08:40,0.520,0.298,0.545,0.497,0.466,0.243,0.215,north,1.9,No
2015/08/12,08:50,0.520,0.299,0.544,0.499,0.467,0.245,0.214,north-northeast,2.3,No
2015/08/12,09:00,0.520,0.301,0.546,0.500,0.468,0.244,0.214,north-northeast,1.4,No
2015/08/12,09:10,0.520,0.301,0.547,0.499,0.468,0.245,0.215,north-northeast,2.9,No
2015/08/12,09:20,0.520,0.301,0.550,0.500,0.468,0.244,0.215,north-northeast,2.7,No
2015/08/12,09:30,0.518,0.300,0.551,0.500,0.469,0.245,0.216,north-northeast,2.7,No
2015/08/12,09:40,0.523,0.301,0.555,0.501,0.469,0.245,0.216,north-northeast,3.7,No
2015/08/12,09:50,0.527,0.301,0.555,0.499,0.468,0.245,0.216,north-northeast,4.1,No
2015/08/12,10:00,0.529,0.301,0.556,0.499,0.470,0.245,0.215,north-northeast,3.7,No
2015/08/12,10:10,0.528,0.299,0.549,0.498,0.470,0.245,0.216,north-northeast,3.6,No
2015/08/12,10:20,0.524,0.299,0.552,0.500,0.469,0.245,0.215,north-northeast,3.6,No
2015/08/12,10:30,0.521,0.301,0.552,0.499,0.469,0.244,0.216,north-northeast,4.2,No
2015/08/12,10:40,0.521,0.301,0.551,0.500,0.468,0.244,0.215,north-northeast,4.5,No
2015/08/12,10:50,0.521,0.302,0.551,0.501,0.468,0.244,0.216,northeast,3.7,No
2015/08/12,11:00,0.523,0.300,0.551,0.501,0.470,0.246,0.216,north-northeast,3.9,No
2015/08/12,11:10,0.523,0.301,0.550,0.501,0.470,0.245,0.215,northeast,5.0,No
2015/08/12,11:20,0.524,0.302,0.552,0.503,0.470,0.247,0.217,north-northeast,3.8,No
2015/08/12,11:30,0.522,0.301,0.553,0.504,0.472,0.244,0.217,north-northeast,3.2,No
2015/08/12,11:40,0.522,0.300,0.554,0.504,0.473,0.245,0.216,north-northeast,3.6,No
2015/08/12,11:50,0.523,0.301,0.553,0.504,0.471,0.246,0.217,northeast,3.4,No
2015/08/12,12:00,0.524,0.302,0.551,0.502,0.472,0.245,0.216,northeast,4.0,No
2015/08/12,12:10,0.523,0.301,0.554,0.503,0.470,0.246,0.218,north-northeast,3.2,No
2015/08/12,12:20,0.523,0.301,0.553,0.505,0.471,0.247,0.218,northeast,4.9,No
2015/08/12,12:30,0.524,0.300,0.555,0.504,0.471,0.245,0.216,northeast,4.2,No
2015/08/12,12:40,0.523,0.301,0.554,0.503,0.471,0.245,0.217,northeast,3.3,No
2015/08/12,12:50,0.523,0.303,0.552,0.503,0.471,0.245,0.217,north-northeast,4.1,No
2015/08/12,13:00,0.522,0.302,0.554,0.502,0.471,0.245,0.215,north-northeast,4.4,No
2015/08/12,13:10,0.521,0.302,0.553,0.503,0.469,0.245,0.217,north-northeast,4.3,No
2015/08/12,13:20,0.523,0.299,0.552,0.501,0.466,0.245,0.217,north-northeast,4.9,Yes
2015/08/12,13:30,0.521,0.301,0.551,0.504,0.467,0.245,0.216,northeast,4.6,Yes
2015/08/12,13:40,0.520,0.300,0.547,0.501,0.467,0.245,0.215,northeast,3.3,Yes
2015/08/12,13:50,0.522,0.299,0.549,0.499,0.466,0.243,0.215,north-northeast,2.7,No
2015/08/12,14:00,0.530,0.299,0.547,0.500,0.464,0.243,0.216,north-northeast,2.5,No
2015/08/12,14:10,0.527,0.299,0.547,0.500,0.465,0.243,0.215,north-northeast,3.1,No
2015/08/12,14:20,0.527,0.298,0.549,0.499,0.468,0.244,0.216,northeast,2.4,No
2015/08/12,14:30,0.524,0.299,0.549,0.499,0.465,0.245,0.214,east-northeast,2.4,No
2015/08/12,14:40,0.522,0.299,0.549,0.499,0.468,0.244,0.216,east-northeast,2.2,No
2015/08/12,14:50,0.521,0.299,0.547,0.497,0.467,0.244,0.216,east-northeast,1.0,No
2015/08/12,15:00,0.519,0.298,0.549,0.499,0.466,0.244,0.214,east-northeast,1.3,No
2015/08/12,15:10,0.522,0.298,0.546,0.497,0.465,0.244,0.214,northeast,1.4,No
2015/08/12,15:20,0.526,0.303,0.547,0.501,0.468,0.244,0.216,northeast,1.2,No
2015/08/12,15:30,0.526,0.303,0.547,0.505,0.469,0.245,0.214,east-southeast,0.9,No
2015/08/12,15:40,0.527,0.303,0.549,0.504,0.466,0.243,0.213,east,0.9,No
2015/08/12,15:50,0.523,0.299,0.556,0.502,0.467,0.244,0.214,southeast,0.7,No
2015/08/12,16:00,0.520,0.300,0.553,0.501,0.467,0.246,0.213,east,0.5,No
2015/08/12,16:10,0.521,0.299,0.552,0.500,0.468,0.245,0.213,east-northeast,1.6,No
2015/08/12,16:20,0.521,0.299,0.551,0.498,0.467,0.244,0.213,northeast,1.2,No
2015/08/12,16:30,0.521,0.299,0.548,0.497,0.467,0.244,0.214,north-northeast,2.1,No
2015/08/12,16:40,0.527,0.298,0.548,0.501,0.466,0.246,0.214,north,2.1,No
2015/08/12,16:50,0.529,0.298,0.548,0.506,0.468,0.245,0.213,north-northeast,2.2,No
2015/08/12,17:00,0.525,0.302,0.547,0.506,0.466,0.244,0.217,north-northeast,1.9,No
2015/08/12,17:10,0.524,0.304,0.554,0.504,0.466,0.244,0.217,north,1.8,No
2015/08/12,17:20,0.520,0.302,0.555,0.499,0.469,0.244,0.216,north,2.7,No
2015/08/12,17:30,0.522,0.300,0.554,0.498,0.466,0.247,0.214,north,2.8,No
2015/08/12,17:40,0.528,0.299,0.551,0.501,0.464,0.245,0.212,north,3.1,No
2015/08/12,17:50,0.527,0.298,0.547,0.505,0.469,0.246,0.214,north,3.6,No
2015/08/12,18:00,0.522,0.303,0.552,0.503,0.473,0.245,0.216,north,3.6,No
2015/08/12,18:10,0.521,0.302,0.557,0.501,0.471,0.245,0.216,north,4.6,No
2015/08/12,18:20,0.526,0.299,0.554,0.499,0.467,0.244,0.214,north,4.1,No
2015/08/12,18:30,0.527,0.298,0.550,0.505,0.467,0.245,0.214,north,3.8,No
2015/08/12,18:40,0.523,0.302,0.549,0.507,0.474,0.244,0.216,north,4.4,No
2015/08/12,18:50,0.519,0.303,0.556,0.502,0.472,0.245,0.216,north-northwest,4.2,No
2015/08/12,19:00,0.524,0.299,0.553,0.499,0.467,0.246,0.215,north-northwest,3.6,No
2015/08/12,19:10,0.530,0.300,0.551,0.504,0.468,0.245,0.214,north-northwest,2.8,No
2015/08/12,19:20,0.526,0.302,0.548,0.508,0.473,0.243,0.216,north-northwest,2.8,No
2015/08/12,19:30,0.519,0.301,0.556,0.503,0.470,0.243,0.217,northwest,3.0,No
2015/08/12,19:40,0.526,0.300,0.554,0.500,0.466,0.245,0.215,northwest,2.0,No
2015/08/12,19:50,0.528,0.300,0.549,0.506,0.470,0.245,0.215,west-northwest,1.8,No
2015/08/12,20:00,0.524,0.303,0.552,0.506,0.471,0.243,0.216,west-northwest,1.9,No
2015/08/12,20:10,0.521,0.300,0.555,0.499,0.467,0.244,0.214,west-northwest,1.9,No
2015/08/12,20:20,0.531,0.299,0.552,0.500,0.469,0.245,0.214,west,1.4,No
2015/08/12,20:30,0.527,0.303,0.547,0.506,0.474,0.243,0.215,west,1.1,No
2015/08/12,20:40,0.521,0.302,0.555,0.503,0.468,0.244,0.216,west,1.1,No
2015/08/12,20:50,0.525,0.299,0.551,0.500,0.466,0.245,0.215,west-southwest,1.0,No
2015/08/12,21:00,0.526,0.303,0.549,0.505,0.472,0.244,0.217,west-southwest,1.6,No
2015/08/12,21:10,0.523,0.300,0.552,0.505,0.471,0.244,0.214,west-southwest,2.4,No
2015/08/12,21:20,0.522,0.297,0.556,0.499,0.466,0.244,0.214,west-southwest,2.2,No
2015/08/12,21:30,0.528,0.302,0.550,0.500,0.472,0.243,0.216,west-southwest,2.4,No
2015/08/12,21:40,0.524,0.300,0.550,0.507,0.472,0.244,0.215,west-southwest,1.6,No
2015/08/12,21:50,0.521,0.299,0.559,0.502,0.466,0.245,0.214,southwest,1.2,No
2015/08/12,22:00,0.526,0.303,0.553,0.501,0.467,0.244,0.216,west-southwest,1.3,No
2015/08/12,22:10,0.526,0.301,0.548,0.508,0.475,0.244,0.215,south-southwest,1.2,No
2015/08/12,22:20,0.521,0.300,0.558,0.502,0.466,0.244,0.215,south-southwest,2.2,No
2015/08/12,22:30,0.527,0.303,0.553,0.499,0.467,0.244,0.215,south-southwest,1.9,No
2015/08/12,22:40,0.526,0.302,0.548,0.507,0.472,0.244,0.214,south-southwest,1.6,No
2015/08/12,22:50,0.521,0.298,0.557,0.502,0.468,0.244,0.215,southwest,1.1,No
2015/08/12,23:00,0.529,0.302,0.555,0.499,0.465,0.243,0.216,west-southwest,0.5,No
2015/08/12,23:10,0.525,0.301,0.549,0.508,0.473,0.245,0.215,west-northwest,0.5,No
2015/08/12,23:20,0.522,0.300,0.553,0.502,0.472,0.242,0.216,north-northeast,0.8,No
2015/08/12,23:30,0.527,0.303,0.555,0.500,0.467,0.244,0.216,north-northeast,1.8,No
2015/08/12,23:40,0.527,0.299,0.550,0.507,0.470,0.244,0.215,north-northeast,1.9,No
2015/08/12,23:50,0.521,0.302,0.554,0.503,0.470,0.243,0.217,north-northeast,2.0,No
